Regional Weather Roundup
Issued by NWS Newport/Morehead, NC

Current Version | Previous Version | Graphics & Text | Print | Product List | Glossary On
Versions: 1 2 3 4 5 6 7 8 9 10 11 12 13 14 15 16 17 18 19 20 21 22 23 24 25 26 27 28 29 30 31 32 33 34 35 36 37 38 39 40 41 42 43 44 45 46 47 48 49 50
000 ASUS42 KMHX 092113 RWRMHX WEATHER ROUNDUP FOR EASTERN NORTH CAROLINA NATIONAL WEATHER SERVICE NEWPORT/MOREHEAD CITY NC 400 PM EST TUE FEB 09 2016 NOTE: "FAIR" INDICATES FEW OR NO CLOUDS BELOW 12,000 FEET WITH NO SIGNIFICANT WEATHER AND/OR OBSTRUCTIONS TO VISIBILITY NCZ015>017-031-032-045>047-102-103-092200- NORTH COAST CITY SKY/WX TMP DP RH WIND PRES REMARKS EDENTON CLOUDY 43 35 72 SW10 29.63R ELIZABETH CITY PTSUNNY 45 31 58 SW13 29.60R KITTY HAWK PTCLDY 48 31 52 W9 29.60R MANTEO MOSUNNY 46 29 52 W17 29.61R $$ NCZ045>047-081-094-103-104-092200- CENTRAL COAST CITY SKY/WX TMP DP RH WIND PRES REMARKS FRISCO CLOUDY 46 33 60 W8 29.64R SWANQUARTER N/A 48 N/A N/A S2G18 29.62R $$ NCZ095-097-098-100-101-092200- SOUTHERN COAST CITY SKY/WX TMP DP RH WIND PRES REMARKS BEAUFORT MOSUNNY 46 28 49 W17G28 29.66R CEDAR ISLAND N/A 46 N/A N/A SW12G20 29.68S JACKSONVILLE MOSUNNY 47 24 40 W12 29.67R PINEY ISLAND MOCLDY N/A N/A N/A W16G26 29.64R WILMINGTON PTSUNNY 48 26 42 W21G26 29.70R $$ NCZ011>013-027>030-043-044-078>080-089-090>093-098-092200- COASTAL PLAIN CITY SKY/WX TMP DP RH WIND PRES REMARKS AHOSKIE CLOUDY 44 29 56 CALM 29.62R CLINTON MOSUNNY 44 25 48 SW16G25 29.69R ELIZABETHTOWN CLOUDY 44 25 47 W14 29.70R GOLDSBORO CLOUDY 43 25 49 W20 29.64R GREENVILLE PTSUNNY 45 30 57 W15G22 29.67R HAVELOCK CLOUDY 46 27 47 W17 29.67R KENANSVILLE CLOUDY 44 23 43 SW12G23 29.68R KINSTON MOSUNNY 46 25 42 SW14G24 29.66R NEW BERN MOSUNNY 45 26 47 W16G24 29.67R RICHLANDS CLOUDY 45 21 39 SW10G21 29.68R ROCKY MOUNT CLOUDY 42 26 53 W9G21 29.64R WASHINGTON PTSUNNY 44 34 67 W10 29.63S WHITEVILLE CLOUDY 43 25 48 W9 29.72R $$ AMZ130-135-150-152-154-156-158-170-250-252-270-ANZ085-086-088-633-658-670-092200- MARINE OBSERVATIONS STATION/POSITION TIME TEMP WIND PRES WAVE SWELL AIR SEA DIR/SP/G HT/PER HT/PER (UTC) (F) (DEG/KT/KT) (MB) (FT/S) (FT/S) CHESAPEAKE LIGHT 2100 45 280/ 10/ 11 1002.1 64 E VA BEACH 2050 45 50 260/ 10/ 16 1001.3 9/15 8/15 DUCK 2000 46 250/ 17/ 21 1001.1 2 E DUCK 2011 45 N/A 7/15 7/15 OREGON INLET 2000 47 45 240/ 14/ 18 1001.9 13E OREGON INLT 2100 47 N/A 10/14 8/14 HATTERAS CG 2000 45 52 280/ 16/ 19 1002.5 DIAMOND BUOY 2050 48 74 290/ 14/ 21 1003.5 10/15 8/15 CAPE LOOKOUT NOT AVBL BEAUFORT LAB 2000 46 47 230/ 7/ 15 1002.8 30 SE NEW RVR IN 2008 47 60 1004.6 30 SE NEW RVR IN 2025 60 N/A 9/ 8 3/14 27 SE WRIGHTSVLE 2008 48 60 270/ 23/ 31 1004.2 5 SE WRIGHTSVLE 2008 47 51 260/ 19/ 27 1005.1 225 S CAPE HAT 2050 56 69 270/ 25/ 33 N/A 14/11 10/11 41 SE CHARLESTON 2050 48 65 270/ 23/ 29 1007.6 9/ 7 2/13 $$

USA.gov is the U.S. government's official web portal to all federal, state and local government web resources and services.